Slayton, MN

9:13 PM CDT on June 28, 2017 (GMT -0500)
Slayton

Weather History for KDVP - November, 2011

Change the Weather History Date:

Friday, November 25, 2011

  Actual Average (KOTG) Record (KOTG)
Temperature  
Mean Temperature 44 °F -  
Max Temperature 50 °F 35 °F 62 °F (1990)
Min Temperature 39 °F 21 °F -10 °F (1977)
Degree Days  
Heating Degree Days 20    
Moisture  
Dew Point 39 °F    
Average Humidity 79    
Maximum Humidity 87    
Minimum Humidity 59    
Precipitation  
Precipitation 0.00 in - - ()
Sea Level Pressure  
Sea Level Pressure 29.64 in    
Wind  
Wind Speed 11 mph (SSW)    
Max Wind Speed 15 mph    
Max Gust Speed 18 mph    
Visibility 9 miles    
Events      
Averages and records for this station are not official NWS values.
T = Trace of Precipitation, MM = Missing Value Source: NWS Daily Summary

Daily Weather History Graph

Daily Weather History Graph

Search for Another Location

Airport or City:

Trip Planner

Search our weather history database for the weather conditions in past years. The results will help you decide how hot, cold, wet, or windy it might be!

Date:

Astronomy

Nov. 25, 2011 Rise Set
Actual Time 7:30 AM CST 4:49 PM CST
Civil Twilight 6:58 AM CST 5:21 PM CST
Nautical Twilight 6:22 AM CST 5:56 PM CST
Astronomical Twilight 5:48 AM CST 6:31 PM CST
Moon 8:01 AM CST (11/25) 5:15 PM CST (11/25)
Length of Visible Light 10h 22m
Length of Day
9h 18m
New Moon, 0% of the Moon is Illuminated
Nov 25
New Moon
Dec 2
First Quarter
Dec 10
Full
Dec 17
Last Quarter
Dec 24
New

Hourly Weather History & Observations

Time (CST) Temp. Windchill Dew Point Humidity Pressure Visibility Wind Dir Wind Speed Gust Speed Precip Events Conditions
12:15 AM 45.7 °F 39.1 °F 32.2 °F 59% 29.68 in 10.0 mi SSW 15.0 mph - N/A   Clear
12:35 AM 45.3 °F 39.7 °F 32.0 °F 60% 29.68 in 10.0 mi SSW 11.5 mph - N/A   Clear
12:55 AM 44.8 °F 40.4 °F 32.0 °F 61% 29.68 in 10.0 mi South 8.1 mph - N/A   Clear
1:35 AM 44.6 °F 38.1 °F 32.0 °F 61% 29.68 in 10.0 mi SSW 13.8 mph - N/A   Clear
1:55 AM 43.5 °F 37.5 °F 32.0 °F 64% 29.69 in 10.0 mi SSW 11.5 mph - N/A   Clear
2:15 AM 43.0 °F 38.2 °F 32.0 °F 65% 29.68 in 10.0 mi SSW 8.1 mph - N/A   Clear
2:35 AM 42.6 °F 36.3 °F 32.2 °F 67% 29.68 in 10.0 mi SSW 11.5 mph - N/A   Clear
2:55 AM 42.3 °F 36.3 °F 32.9 °F 69% 29.68 in 10.0 mi South 10.4 mph - N/A   Clear
3:15 AM 39.4 °F 32.3 °F 32.0 °F 75% 29.69 in 10.0 mi SSW 11.5 mph - N/A   Clear
3:55 AM 41.0 °F 33.5 °F 34.7 °F 78% 29.68 in 10.0 mi SW 13.8 mph - N/A   Clear
4:15 AM 39.9 °F 33.4 °F 33.8 °F 79% 29.66 in 10.0 mi SSW 10.4 mph - N/A   Clear
4:35 AM 39.7 °F 31.5 °F 34.7 °F 82% 29.67 in 10.0 mi SW 15.0 mph - N/A   Clear
4:55 AM 39.2 °F 31.6 °F 34.0 °F 82% 29.67 in 10.0 mi SW 12.7 mph - N/A   Clear
5:15 AM 39.6 °F 32.1 °F 35.1 °F 84% 29.67 in 10.0 mi SW 12.7 mph - N/A   Clear
5:35 AM 39.6 °F 32.1 °F 35.1 °F 84% 29.66 in 10.0 mi SSW 12.7 mph - N/A   Clear
5:55 AM 39.2 °F 32.5 °F 34.9 °F 84% 29.65 in 10.0 mi SSW 10.4 mph - N/A   Clear
6:15 AM 39.6 °F 31.7 °F 34.7 °F 83% 29.66 in 10.0 mi SW 13.8 mph - N/A   Clear
6:35 AM 40.6 °F 33.8 °F 35.2 °F 81% 29.66 in 10.0 mi SW 11.5 mph - N/A   Clear
6:55 AM 40.5 °F 36.5 °F 35.1 °F 81% 29.66 in 10.0 mi SSW 5.8 mph - N/A   Clear
7:15 AM 40.3 °F 33.9 °F 35.6 °F 83% 29.66 in 10.0 mi SW 10.4 mph - N/A   Clear
7:35 AM 40.1 °F 38.0 °F 36.0 °F 85% 29.66 in 10.0 mi SE 3.5 mph - N/A   Clear
7:55 AM 40.3 °F 36.3 °F 36.0 °F 85% 29.66 in 10.0 mi South 5.8 mph - N/A   Clear
8:15 AM 40.3 °F 34.9 °F 36.5 °F 86% 29.67 in 10.0 mi SSW 8.1 mph - N/A   Clear
8:35 AM 41.0 °F 35.8 °F 37.2 °F 86% 29.67 in 10.0 mi SW 8.1 mph - N/A   Clear
8:55 AM 42.1 °F 36.6 °F 38.3 °F 86% 29.67 in 10.0 mi WSW 9.2 mph - N/A   Clear
9:15 AM 42.3 °F 37.9 °F 38.7 °F 87% 29.66 in 10.0 mi SW 6.9 mph - N/A   Clear
9:35 AM 43.3 °F 36.1 °F 39.7 °F 87% 29.65 in 10.0 mi SSW 15.0 mph 18.4 mph N/A   Clear
9:55 AM 44.6 °F 38.1 °F 40.1 °F 84% 29.66 in 10.0 mi SW 13.8 mph - N/A   Clear
10:15 AM 45.5 °F 40.8 °F 39.7 °F 80% 29.67 in 10.0 mi SW 9.2 mph - N/A   Clear
10:35 AM 45.7 °F 42.7 °F 38.7 °F 76% 29.66 in 10.0 mi SW 5.8 mph - N/A   Clear
10:55 AM 46.0 °F 41.4 °F 39.0 °F 76% 29.66 in 7.0 mi SSW 9.2 mph - N/A   Clear
11:35 AM 46.8 °F - 39.7 °F 77% 29.64 in 10.0 mi South 9.2 mph - N/A   Clear
12:15 PM 47.3 °F - 40.3 °F 77% 29.62 in 10.0 mi South 9.2 mph - N/A   Clear
12:35 PM 47.5 °F - 41.0 °F 78% 29.61 in 10.0 mi South 12.7 mph - N/A   Clear
12:55 PM 47.8 °F - 41.4 °F 78% 29.60 in 10.0 mi SSE 13.8 mph - N/A   Clear
1:15 PM 48.6 °F - 42.4 °F 79% 29.59 in 10.0 mi South 12.7 mph 18.4 mph N/A   Clear
1:35 PM 49.1 °F - 42.8 °F 79% 29.60 in 10.0 mi South 11.5 mph 16.1 mph N/A   Clear
2:15 PM 50.2 °F - 43.3 °F 77% 29.59 in 10.0 mi South 10.4 mph - N/A   Clear
2:35 PM 50.9 °F - 43.0 °F 74% 29.60 in 7.0 mi South 12.7 mph - N/A   Clear
3:15 PM 50.5 °F - 43.3 °F 76% 29.59 in 5.0 mi South 9.2 mph - N/A   Haze
3:35 PM 50.5 °F - 43.7 °F 77% 29.60 in 5.0 mi SSW 10.4 mph - N/A   Haze
3:54 PM 50.5 °F - 43.7 °F 77% 29.61 in 5.0 mi South 10.4 mph - N/A   Haze
4:15 PM 50.4 °F - 44.2 °F 80% 29.60 in 7.0 mi South 11.5 mph 17.3 mph N/A   Scattered Clouds
4:35 PM 49.6 °F - 44.1 °F 81% 29.60 in 7.0 mi South 9.2 mph - N/A   Mostly Cloudy
5:15 PM 48.2 °F - 43.5 °F 84% 29.60 in 7.0 mi South 11.5 mph - N/A   Clear
5:55 PM 48.2 °F - 43.7 °F 84% 29.60 in 7.0 mi South 9.2 mph - N/A   Scattered Clouds
6:15 PM 48.2 °F - 43.7 °F 84% 29.60 in 7.0 mi South 10.4 mph - N/A   Scattered Clouds
6:35 PM 47.8 °F - 43.9 °F 86% 29.61 in 7.0 mi South 8.1 mph - N/A   Scattered Clouds
6:55 PM 48.0 °F - 44.1 °F 86% 29.60 in 7.0 mi South 9.2 mph - N/A   Clear
7:34 PM 47.8 °F - 44.2 °F 87% 29.60 in 5.0 mi South 8.1 mph - N/A   Scattered Clouds
8:15 PM 48.6 °F - 44.8 °F 87% 29.61 in 7.0 mi South 9.2 mph - N/A   Overcast
8:34 PM 48.7 °F - 44.8 °F 86% 29.61 in 7.0 mi SSW 9.2 mph - N/A   Overcast
8:55 PM 48.2 °F - 44.6 °F 87% 29.62 in 7.0 mi South 8.1 mph - N/A   Overcast
9:15 PM 48.2 °F - 44.6 °F 87% 29.62 in 7.0 mi South 6.9 mph - N/A   Overcast
9:35 PM 47.8 °F - 44.6 °F 89% 29.62 in 5.0 mi South 8.1 mph - N/A   Overcast
9:55 PM 47.3 °F - 44.1 °F 88% 29.63 in 5.0 mi SSW 9.2 mph - N/A   Overcast
10:15 PM 47.3 °F - 44.1 °F 88% 29.63 in 5.0 mi SSW 8.1 mph - N/A   Overcast
10:35 PM 46.8 °F - 43.9 °F 90% 29.63 in 5.0 mi SSW 8.1 mph - N/A   Overcast
10:55 PM 46.0 °F 41.4 °F 43.5 °F 91% 29.61 in 5.0 mi SSW 9.2 mph - N/A   Mostly Cloudy
11:15 PM 45.1 °F 42.8 °F 42.8 °F 91% 29.63 in 5.0 mi SW 4.6 mph - N/A   Clear
11:35 PM 44.6 °F 40.7 °F 42.3 °F 91% 29.64 in 5.0 mi West 6.9 mph - N/A   Clear
11:55 PM 41.5 °F 35.4 °F 34.2 °F 75% 29.66 in 10.0 mi West 10.4 mph - N/A   Mostly Cloudy